Date String (YYYY-MM-DD hh:mm:ss) UTC,Instrument flags,Ambient pressure (hPa),Sample flow (lpm),Bypass flow (lpm),Sample temperature (°C),Ambient temperature (°C),ASC tube jacket temperature (°C),LED temperature (°C),Box temperature (°C),Sample RH (%),Span deviation,Mass concentration (μg/m³),Mass concentration (μg/m³),Mass concentration (μg/m³)
DateTimeUTC,F1_M11,P_M11,Q1_M11,Q2_M11,T1_M11,T2_M11,T3_M11,T4_M11,T5_M11,U1_M11,ZSPAN_M11,X0_M11,X2_M11,X1_M11
2021-10-10 04:00:00,,0822.7,4.99,0.00,29.5,28.6,00.0,38.7,31.3,11.7,0000.0,0006.69,0001.67,0001.18
2021-10-10 04:01:00,,0822.7,5.00,0.00,29.5,28.6,00.0,38.7,31.3,11.7,0000.0,0006.82,0001.72,0001.18
2021-10-10 04:02:00,,0822.7,5.01,0.00,29.5,28.6,00.0,38.7,31.3,11.7,0000.0,0007.80,0001.76,0001.18
2021-10-10 04:03:00,,0822.7,5.01,0.00,29.5,28.6,00.0,38.7,31.2,11.6,0000.0,0007.80,0001.75,0001.18
2021-10-10 04:04:00,,0822.7,4.99,0.00,29.5,28.6,00.0,38.7,31.2,11.6,0000.0,0007.76,0001.72,0001.18
2021-10-10 04:05:00,,0822.7,5.01,0.00,29.5,28.5,00.0,38.6,31.2,11.6,0000.0,0007.73,0001.70,0001.17
2021-10-10 04:06:00,,0822.7,5.00,0.00,29.4,28.5,00.0,38.6,31.1,11.5,0000.0,0007.73,0001.70,0001.18
2021-10-10 04:07:00,,0822.7,5.00,0.00,29.4,28.5,00.0,38.6,31.2,11.4,0000.0,0007.75,0001.70,0001.17
2021-10-10 04:08:00,,0822.8,5.00,0.00,29.4,28.6,00.0,38.6,31.2,11.4,0000.0,0006.90,0001.70,0001.16
2021-10-10 04:09:00,,0822.8,5.00,0.00,29.5,28.6,00.0,38.6,31.2,11.3,0000.0,0006.17,0001.66,0001.16
2021-10-10 04:10:00,,0822.8,5.01,0.00,29.5,28.6,00.0,38.6,31.2,11.2,0000.0,0005.52,0001.59,0001.15
2021-10-10 04:11:00,,0822.8,5.00,0.00,29.5,28.6,00.0,38.6,31.2,11.0,0000.0,0004.00,0001.51,0001.13
2021-10-10 04:12:00,,0822.8,4.99,0.00,29.5,28.6,00.0,38.6,31.2,11.0,0000.0,0004.74,0001.47,0001.11
2021-10-10 04:13:00,,0822.8,5.00,0.00,29.5,28.6,00.0,38.6,31.2,11.1,0000.0,0003.46,0001.42,0001.11
2021-10-10 04:14:00,,0822.9,4.99,0.00,29.5,28.6,00.0,38.6,31.2,11.1,0000.0,0004.65,0001.42,0001.11
2021-10-10 04:15:00,,0822.9,5.00,0.00,29.5,28.7,00.0,38.6,31.2,11.2,0000.0,0005.11,0001.44,0001.11
2021-10-10 04:16:00,,0823.0,5.00,0.00,29.5,28.7,00.0,38.6,31.3,11.2,0000.0,0005.36,0001.46,0001.11
2021-10-10 04:17:00,,0823.0,5.00,0.00,29.5,28.7,00.0,38.6,31.3,11.2,0000.0,0005.19,0001.44,0001.11
2021-10-10 04:18:00,,0823.0,5.01,0.00,29.5,28.7,00.0,38.6,31.3,11.1,0000.0,0005.23,0001.45,0001.12
2021-10-10 04:19:00,,0823.0,4.99,0.00,29.5,28.7,00.0,38.6,31.3,11.1,0000.0,0005.28,0001.46,0001.13
2021-10-10 04:20:00,,0822.9,5.00,0.00,29.6,28.7,00.0,38.6,31.3,10.9,0000.0,0005.44,0001.51,0001.14
2021-10-10 04:21:00,,0823.0,4.99,0.00,29.6,28.7,00.0,38.7,31.3,11.0,0000.0,0005.35,0001.49,0001.13
2021-10-10 04:22:00,,0823.0,5.00,0.00,29.6,28.7,00.0,38.7,31.3,10.7,0000.0,0005.52,0001.52,0001.13
2021-10-10 04:23:00,,0822.9,5.00,0.00,29.6,28.8,00.0,38.7,31.3,10.9,0000.0,0004.89,0001.52,0001.14
2021-10-10 04:24:00,,0823.0,5.00,0.00,29.6,28.8,00.0,38.7,31.3,11.0,0000.0,0004.48,0001.53,0001.14
2021-10-10 04:25:00,,0822.9,5.00,0.00,29.6,28.7,00.0,38.7,31.3,11.0,0000.0,0003.66,0001.54,0001.13
2021-10-10 04:26:00,,0823.0,5.01,0.00,29.6,28.7,00.0,38.7,31.3,10.9,0000.0,0002.88,0001.55,0001.14
2021-10-10 04:27:00,,0823.0,4.99,0.00,29.6,28.7,00.0,38.7,31.3,10.2,0000.0,0002.72,0001.56,0001.15
2021-10-10 04:28:00,,0822.9,5.00,0.00,29.6,28.7,00.0,38.7,31.3,10.3,0000.0,0002.59,0001.53,0001.14
2021-10-10 04:29:00,,0823.0,4.99,0.00,29.6,28.7,00.0,38.7,31.3,10.8,0000.0,0002.59,0001.53,0001.15
2021-10-10 04:30:00,,0823.0,5.00,0.00,29.6,28.7,00.0,38.7,31.3,10.6,0000.0,0002.55,0001.49,0001.14
2021-10-10 04:31:00,,0822.9,5.00,0.00,29.5,28.6,00.0,38.7,31.2,10.1,0000.0,0002.37,0001.44,0001.13
2021-10-10 04:32:00,,0822.9,5.01,0.00,29.5,28.6,00.0,38.7,31.2,09.8,0000.0,0002.34,0001.46,0001.14
2021-10-10 04:33:00,,0823.0,5.00,0.00,29.5,28.6,00.0,38.7,31.2,09.7,0000.0,0002.23,0001.47,0001.15
2021-10-10 04:34:00,,0823.0,5.00,0.00,29.5,28.6,00.0,38.7,31.1,09.8,0000.0,0002.18,0001.46,0001.17
2021-10-10 04:35:00,,0822.9,5.00,0.00,29.5,28.5,00.0,38.7,31.1,09.8,0000.0,0002.13,0001.46,0001.18
2021-10-10 04:36:00,,0822.9,5.01,0.00,29.5,28.5,00.0,38.7,31.1,09.7,0000.0,0002.08,0001.45,0001.20
2021-10-10 04:37:00,,0822.8,5.00,0.00,29.5,28.5,00.0,38.7,31.1,09.7,0000.0,0002.08,0001.43,0001.20
2021-10-10 04:38:00,,0822.8,5.00,0.00,29.5,28.5,00.0,38.7,31.1,09.8,0000.0,0002.05,0001.43,0001.21
2021-10-10 04:39:00,,0822.8,5.00,0.00,29.5,28.5,00.0,38.6,31.2,09.8,0000.0,0002.38,0001.50,0001.22
2021-10-10 04:40:00,,0822.8,5.00,0.00,29.5,28.4,00.0,38.6,31.2,09.8,0000.0,0002.37,0001.50,0001.23
2021-10-10 04:41:00,,0822.8,5.00,0.00,29.5,28.4,00.0,38.6,31.1,09.8,0000.0,0002.28,0001.50,0001.24
2021-10-10 04:42:00,,0822.8,5.00,0.00,29.5,28.4,00.0,38.6,31.1,09.9,0000.0,0002.32,0001.52,0001.25
2021-10-10 04:43:00,,0822.7,5.01,0.00,29.5,28.4,00.0,38.6,31.1,09.8,0000.0,0002.33,0001.52,0001.25
2021-10-10 04:44:00,,0822.6,5.00,0.00,29.5,28.4,00.0,38.6,31.1,09.8,0000.0,0002.36,0001.54,0001.27
2021-10-10 04:45:00,,0822.7,5.02,0.00,29.5,28.4,00.0,38.6,31.0,09.9,0000.0,0002.45,0001.56,0001.28
2021-10-10 04:46:00,,0822.7,5.00,0.00,29.4,28.4,00.0,38.6,31.1,09.9,0000.0,0002.44,0001.56,0001.28
2021-10-10 04:47:00,,0822.8,5.00,0.00,29.4,28.4,00.0,38.6,31.1,10.0,0000.0,0002.51,0001.59,0001.29
2021-10-10 04:48:00,,0822.8,5.01,0.00,29.4,28.3,00.0,38.6,31.1,10.0,0000.0,0002.44,0001.59,0001.29
2021-10-10 04:49:00,,0822.8,5.00,0.00,29.4,28.4,00.0,38.6,31.1,09.9,0000.0,0002.40,0001.58,0001.29
2021-10-10 04:50:00,,0822.8,5.00,0.00,29.5,28.3,00.0,38.6,31.1,10.0,0000.0,0002.28,0001.54,0001.29
2021-10-10 04:51:00,,0822.8,5.00,0.00,29.4,28.4,00.0,38.6,31.1,10.1,0000.0,0002.11,0001.54,0001.29
2021-10-10 04:52:00,,0822.8,5.00,0.00,29.4,28.3,00.0,38.6,31.1,10.2,0000.0,0002.15,0001.55,0001.30
2021-10-10 04:53:00,,0822.8,5.01,0.00,29.4,28.3,00.0,38.6,31.1,10.2,0000.0,0002.72,0001.56,0001.30
2021-10-10 04:54:00,,0822.8,4.99,0.00,29.4,28.3,00.0,38.6,31.1,10.3,0000.0,0002.71,0001.55,0001.31
2021-10-10 04:55:00,,0822.8,5.00,0.00,29.4,28.3,00.0,38.6,31.1,10.3,0000.0,0002.75,0001.53,0001.31
2021-10-10 04:56:00,,0822.8,5.00,0.00,29.4,28.3,00.0,38.6,31.1,10.3,0000.0,0003.54,0001.51,0001.30
2021-10-10 04:57:00,,0822.7,4.99,0.00,29.4,28.3,00.0,38.6,31.1,10.3,0000.0,0003.53,0001.50,0001.29
2021-10-10 04:58:00,,0822.8,5.00,0.00,29.4,28.3,00.0,38.6,31.1,10.2,0000.0,0003.43,0001.46,0001.28
2021-10-10 04:59:00,,0822.8,5.00,0.00,29.4,28.3,00.0,38.6,31.1,10.3,0000.0,0003.41,0001.44,0001.27
